FW9036 Weather Reports


time (UTC)temp
F
wind
direction
speed
knots
gust
knots
rain 1hr
in
rain 24hr
in
rain mn
in
humidity
%
barometer
mb
20260507012426 78 263 2.6 3.5 0.00 0.00 0.00 69 1016.6
20260507011922 78 90 0.0 0.9 0.00 0.00 0.00 70 1016.7
20260507011420 78 128 0.0 3.5 0.00 0.00 0.00 69 1016.7
20260507010919 78 289 0.0 2.6 0.00 0.00 0.00 69 1016.6
20260507010415 78 254 0.9 1.7 0.00 0.00 0.00 69 1016.6
20260507005912 78 261 0.0 1.7 0.00 0.00 0.00 69 1016.6
20260507005409 79 114 1.7 2.6 0.00 0.00 0.00 68 1016.4
20260507004906 79 110 1.7 5.2 0.00 0.00 0.00 67 1016.2
20260507004403 79 81 1.7 4.3 0.00 0.00 0.00 67 1016.6
20260507003900 79 116 3.5 3.5 0.00 0.00 0.00 67 1016.4
20260507003355 79 129 1.7 4.3 0.00 0.00 0.00 67 1016.3
20260507002851 80 124 2.6 5.2 0.00 0.00 0.00 66 1016.1
20260507002347 80 113 0.0 3.5 0.00 0.00 0.00 66 1016.2
20260507001844 80 160 0.9 4.3 0.00 0.00 0.00 66 1015.9
20260507001341 80 139 1.7 4.3 0.00 0.00 0.00 66 1015.9
20260507000837 80 111 2.6 3.5 0.00 0.00 0.00 66 1015.8
20260507000335 81 135 0.0 1.7 0.00 0.00 0.00 66 1015.5
20260506235830 81 142 0.0 3.5 0.00 0.00 0.00 66 1015.6
20260506235326 81 150 1.7 2.6 0.00 0.00 0.00 65 1015.8
20260506234822 82 111 2.6 3.5 0.00 0.00 0.00 64 1015.4
20260506234321 82 78 0.0 1.7 0.00 0.00 0.00 63 1015.4
20260506233818 82 132 1.7 3.5 0.00 0.00 0.00 63 1015.4
20260506233313 83 84 0.0 4.3 0.00 0.00 0.00 63 1015.6
20260506232811 83 165 1.7 3.5 0.00 0.00 0.00 63 1015.6
20260506232306 83 77 4.3 6.1 0.00 0.00 0.00 63 1015.3
20260506231803 84 57 1.7 8.7 0.00 0.00 0.00 63 1015.5
20260506231301 84 135 0.0 5.2 0.00 0.00 0.00 63 1015.0
20260506230758 84 149 2.6 6.1 0.00 0.00 0.00 63 1015.1
20260506230255 86 141 2.6 6.1 0.00 0.00 0.00 62 1015.3
20260506225751 85 144 2.6 4.3 0.00 0.00 0.00 63 1015.2
20260506225248 85 114 2.6 5.2 0.00 0.00 0.00 64 1015.3
20260506224745 85 117 0.0 5.2 0.00 0.00 0.00 64 1015.3
20260506224243 86 117 4.3 4.3 0.00 0.00 0.00 62 1015.2
20260506223738 86 143 4.3 5.2 0.00 0.00 0.00 61 1015.2
20260506223234 88 90 0.9 4.3 0.00 0.00 0.00 59 1015.5
20260506222731 88 110 8.7 8.7 0.00 0.00 0.00 60 1015.4
20260506222226 87 137 5.2 6.1 0.00 0.00 0.00 62 1015.4
20260506221725 87 129 1.7 4.3 0.00 0.00 0.00 61 1015.5
20260506221223 88 167 2.6 7.0 0.00 0.00 0.00 59 1015.2
20260506220720 89 118 3.5 8.7 0.00 0.00 0.00 59 1015.2
20260506220214 88 163 3.5 7.8 0.00 0.00 0.00 59 1015.2
20260506215711 90 124 4.3 7.8 0.00 0.00 0.00 58 1015.1
20260506215207 90 109 1.7 5.2 0.00 0.00 0.00 58 1015.1
20260506214703 89 135 1.7 7.8 0.00 0.00 0.00 59 1015.3
20260506214201 90 127 4.3 7.8 0.00 0.00 0.00 57 1015.3
20260506213659 91 118 2.6 6.1 0.00 0.00 0.00 57 1015.3
20260506213156 92 149 2.6 7.8 0.00 0.00 0.00 55 1015.1
20260506212653 94 138 2.6 4.3 0.00 0.00 0.00 43 1015.3
20260506212148 94 155 2.6 6.1 0.00 0.00 0.00 43 1015.2
20260506211644 93 121 2.6 4.3 0.00 0.00 0.00 44 1015.3
20260506211141 94 132 2.6 3.5 0.00 0.00 0.00 43 1015.4
20260506210638 93 138 2.6 6.1 0.00 0.00 0.00 44 1015.3
20260506210134 93 99 3.5 4.3 0.00 0.00 0.00 44 1015.6
20260506205632 93 199 0.0 4.3 0.00 0.00 0.00 43 1015.8
20260506205126 93 177 2.6 3.5 0.00 0.00 0.00 44 1015.5
20260506204625 94 0 0.0 3.5 0.00 0.00 0.00 43 1015.8
20260506204121 94 180 2.6 2.6 0.00 0.00 0.00 42 1015.6
20260506203619 93 166 1.7 5.2 0.00 0.00 0.00 44 1015.6
20260506203116 92 234 0.0 5.2 0.00 0.00 0.00 45 1015.8
20260506202614 92 320 4.3 5.2 0.00 0.00 0.00 44 1015.7
20260506202110 92 295 2.6 3.5 0.00 0.00 0.00 44 1015.9
20260506201607 93 115 2.6 6.1 0.00 0.00 0.00 45 1015.9
20260506201103 92 116 4.3 6.1 0.00 0.00 0.00 45 1015.8
20260506200600 92 118 3.5 5.2 0.00 0.00 0.00 46 1016.3
20260506200056 92 97 2.6 6.1 0.00 0.00 0.00 45 1016.0
20260506195553 92 154 0.9 4.3 0.00 0.00 0.00 47 1016.0
20260506195049 93 109 1.7 5.2 0.00 0.00 0.00 45 1016.0
20260506194548 92 148 0.0 2.6 0.00 0.00 0.00 46 1016.3
20260506194043 92 130 2.6 5.2 0.00 0.00 0.00 46 1016.1
20260506193541 91 95 1.7 5.2 0.00 0.00 0.00 47 1016.4
20260506193038 92 146 6.1 6.1 0.00 0.00 0.00 47 1016.7
20260506192535 91 104 5.2 5.2 0.00 0.00 0.00 47 1016.6
20260506192031 92 81 1.7 3.5 0.00 0.00 0.00 48 1016.6
20260506191528 91 78 3.5 5.2 0.00 0.00 0.00 48 1016.7
20260506191024 89 101 3.5 7.0 0.00 0.00 0.00 48 1016.8
20260506190521 91 161 3.5 5.2 0.00 0.00 0.00 48 1017.0
20260506190019 90 130 3.5 7.0 0.00 0.00 0.00 49 1017.0
20260506185515 91 138 2.6 3.5 0.00 0.00 0.00 49 1016.9
20260506185012 90 290 3.5 5.2 0.00 0.00 0.00 51 1017.2
20260506184509 90 0 0.0 7.0 0.00 0.00 0.00 51 1017.1
20260506184006 90 162 2.6 4.3 0.00 0.00 0.00 51 1017.1
20260506183502 89 142 1.7 4.3 0.00 0.00 0.00 52 1017.2
20260506182959 90 303 2.6 4.3 0.00 0.00 0.00 50 1017.5
20260506182456 90 99 1.7 4.3 0.00 0.00 0.00 52 1017.4
20260506181953 89 141 2.6 7.0 0.00 0.00 0.00 52 1017.5
20260506181451 90 82 0.9 2.6 0.00 0.00 0.00 53 1017.5
20260506180948 88 99 3.5 7.8 0.00 0.00 0.00 53 1017.6
20260506180444 88 99 1.7 6.1 0.00 0.00 0.00 54 1017.6
20260506175941 89 98 2.6 4.3 0.00 0.00 0.00 53 1017.6
20260506175438 88 289 5.2 6.1 0.00 0.00 0.00 54 1017.7
20260506174934 89 222 2.6 3.5 0.00 0.00 0.00 55 1017.6
20260506174432 87 188 2.6 4.3 0.00 0.00 0.00 55 1017.8
20260506173929 87 335 2.6 6.1 0.00 0.00 0.00 57 1017.8
20260506173426 88 140 1.7 2.6 0.00 0.00 0.00 57 1017.9
20260506172923 87 121 2.6 5.2 0.00 0.00 0.00 57 1018.1
20260506172420 87 112 6.1 7.0 0.00 0.00 0.00 57 1018.3
20260506171917 87 76 2.6 3.5 0.00 0.00 0.00 58 1018.2
20260506171414 86 72 1.7 6.1 0.00 0.00 0.00 59 1018.1
20260506170912 87 184 1.7 2.6 0.00 0.00 0.00 58 1018.4
20260506170407 86 80 1.7 3.5 0.00 0.00 0.00 60 1018.3
20260506165901 85 109 0.0 4.3 0.00 0.00 0.00 61 1018.3
20260506165359 86 77 2.6 4.3 0.00 0.00 0.00 60 1018.7
20260506164855 85 270 4.3 5.2 0.00 0.00 0.00 60 1018.6
20260506164351 86 249 0.0 2.6 0.00 0.00 0.00 59 1018.7
20260506163850 84 128 0.0 5.2 0.00 0.00 0.00 62 1018.8
20260506163343 84 154 0.9 5.2 0.00 0.00 0.00 62 1018.9
20260506162839 84 99 2.6 6.1 0.00 0.00 0.00 62 1018.8
20260506162337 84 281 4.3 6.1 0.00 0.00 0.00 61 1018.7
20260506161835 84 68 1.7 4.3 0.00 0.00 0.00 62 1018.7
20260506161332 84 246 0.9 3.5 0.00 0.00 0.00 62 1019.1
20260506160829 84 231 2.6 4.3 0.00 0.00 0.00 63 1019.2
20260506160325 83 97 4.3 4.3 0.00 0.00 0.00 63 1019.1
20260506155824 83 96 2.6 3.5 0.00 0.00 0.00 63 1019.1
20260506155320 82 148 1.7 3.5 0.00 0.00 0.00 65 1019.2
20260506153433 82 173 1.7 8.7 0.00 0.00 0.00 65 1019.2
20260506152931 82 75 0.9 3.5 0.00 0.00 0.00 65 1019.1
20260506152427 81 59 3.5 3.5 0.00 0.00 0.00 66 1019.0
20260506151926 80 85 1.7 3.5 0.00 0.00 0.00 67 1019.1
20260506151422 80 242 4.3 4.3 0.00 0.00 0.00 67 1018.9
20260506150920 80 286 3.5 5.2 0.00 0.00 0.00 67 1018.9
20260506150416 79 75 1.7 3.5 0.00 0.00 0.00 68 1019.0
20260506145913 79 138 2.6 3.5 0.00 0.00 0.00 69 1018.9
20260506145409 79 315 1.7 5.2 0.00 0.00 0.00 69 1018.9
20260506144907 79 245 1.7 4.3 0.00 0.00 0.00 69 1018.7
20260506144403 78 154 1.7 5.2 0.00 0.00 0.00 70 1018.7
20260506143902 78 0 1.7 4.3 0.00 0.00 0.00 70 1019.0
20260506143358 78 57 1.7 3.5 0.00 0.00 0.00 70 1018.6
20260506142857 78 191 0.0 5.2 0.00 0.00 0.00 72 1018.6
20260506142354 77 99 0.0 4.3 0.00 0.00 0.00 72 1018.7
20260506141852 77 165 0.0 3.5 0.00 0.00 0.00 72 1018.5
20260506141350 77 196 1.7 7.8 0.00 0.00 0.00 72 1018.7
20260506140848 77 198 0.0 4.3 0.00 0.00 0.00 72 1018.7
20260506140345 76 106 1.7 6.1 0.00 0.00 0.00 73 1018.6
20260506135842 76 232 1.7 5.2 0.00 0.00 0.00 73 1019.0
20260506135338 76 74 0.0 3.5 0.00 0.00 0.00 73 1019.1
20260506134834 76 183 1.7 5.2 0.00 0.00 0.00 73 1018.9
20260506134331 76 290 3.5 4.3 0.00 0.00 0.00 73 1019.0
20260506133828 75 148 0.0 2.6 0.00 0.00 0.00 74 1018.9
20260506133325 75 105 1.7 3.5 0.00 0.00 0.00 74 1019.1
20260506132822 75 283 0.0 4.3 0.00 0.00 0.00 74 1018.8
20260506132319 75 303 0.0 4.3 0.00 0.00 0.00 75 1018.8
20260506131817 75 126 0.9 5.2 0.00 0.00 0.00 75 1018.9
20260506131313 75 233 1.7 2.6 0.00 0.00 0.00 75 1018.9
20260506130810 74 95 1.7 3.5 0.00 0.00 0.00 75 1019.0
20260506130306 74 121 4.3 5.2 0.00 0.00 0.00 76 1019.0
20260506125805 74 107 2.6 2.6 0.00 0.00 0.00 77 1018.7
20260506125305 73 180 0.9 2.6 0.00 0.00 0.00 77 1018.6
20260506124801 73 120 1.7 2.6 0.00 0.00 0.00 77 1018.6
20260506124257 73 103 1.7 2.6 0.00 0.00 0.00 77 1018.6
20260506123755 73 109 0.0 5.2 0.00 0.00 0.00 78 1018.5
20260506123254 72 186 0.0 2.6 0.00 0.00 0.00 79 1018.5
20260506122750 71 278 4.3 4.3 0.00 0.00 0.00 80 1018.5
20260506122247 71 148 1.7 2.6 0.00 0.00 0.00 81 1018.4
20260506121745 70 120 0.0 0.9 0.00 0.00 0.00 81 1018.3
20260506121242 70 95 0.0 1.7 0.00 0.00 0.00 82 1018.2
20260506120739 69 96 0.9 2.6 0.00 0.00 0.00 82 1018.2
20260506120237 69 106 0.0 1.7 0.00 0.00 0.00 82 1018.2
20260506115734 69 117 0.9 1.7 0.00 0.00 0.00 83 1018.1
20260506115232 68 126 0.0 0.0 0.00 0.00 0.00 83 1018.3
20260506114730 68 117 0.0 2.6 0.00 0.00 0.00 83 1018.0
20260506114227 68 97 0.0 0.9 0.00 0.00 0.00 83 1018.2
20260506113726 67 105 0.0 1.7 0.00 0.00 0.00 84 1018.1
20260506113223 67 120 0.0 0.9 0.00 0.00 0.00 84 1018.1
20260506112719 66 111 0.0 1.7 0.00 0.00 0.00 84 1018.1
20260506112217 66 90 0.0 0.0 0.00 0.00 0.00 84 1018.1
20260506111714 66 97 0.0 1.7 0.00 0.00 0.00 84 1018.1
20260506111212 66 90 0.0 1.7 0.00 0.00 0.00 84 1018.0
20260506110708 66 126 0.9 1.7 0.00 0.00 0.00 85 1017.9
20260506110206 65 90 0.0 1.7 0.00 0.00 0.00 85 1017.7
20260506105703 65 90 0.0 0.9 0.00 0.00 0.00 85 1017.8
20260506105159 65 114 0.0 0.9 0.00 0.00 0.00 85 1017.8
20260506104658 65 140 1.7 1.7 0.00 0.00 0.00 84 1017.7
20260506104155 65 106 0.0 0.9 0.00 0.00 0.00 84 1017.9
20260506103652 65 90 0.0 0.0 0.00 0.00 0.00 84 1017.8
20260506103149 65 90 0.0 0.0 0.00 0.00 0.00 84 1017.5
20260506102647 65 90 0.0 0.0 0.00 0.00 0.00 83 1017.5
20260506102144 66 99 0.0 1.7 0.00 0.00 0.00 83 1017.5
20260506101641 66 106 0.0 1.7 0.00 0.00 0.00 83 1017.6
20260506101138 66 81 0.0 1.7 0.00 0.00 0.00 83 1017.6
20260506100636 66 106 0.0 1.7 0.00 0.00 0.00 83 1017.6
20260506100134 66 90 0.0 1.7 0.00 0.00 0.00 83 1017.6
20260506095632 66 90 0.0 0.0 0.00 0.00 0.00 83 1017.6
20260506095129 66 90 0.0 0.9 0.00 0.00 0.00 83 1017.7
20260506094626 65 90 0.0 0.0 0.00 0.00 0.00 83 1017.6
20260506094124 65 99 0.0 0.0 0.00 0.00 0.00 82 1017.8
20260506093622 65 90 0.0 0.0 0.00 0.00 0.00 82 1017.6
20260506093119 66 90 0.0 0.9 0.00 0.00 0.00 82 1017.6
20260506092617 66 111 0.0 0.9 0.00 0.00 0.00 81 1017.6
20260506092113 66 90 0.0 0.9 0.00 0.00 0.00 81 1017.5
20260506091612 66 114 0.0 2.6 0.00 0.00 0.00 80 1017.3
20260506091109 67 96 0.0 0.9 0.00 0.00 0.00 80 1017.3
20260506090607 67 120 0.0 1.7 0.00 0.00 0.00 80 1017.4
20260506085600 66 103 1.7 1.7 0.00 0.00 0.00 80 1017.5
20260506085056 66 106 0.0 1.7 0.00 0.00 0.00 80 1017.5
20260506084553 66 90 0.0 1.7 0.00 0.00 0.00 80 1017.3
20260506084049 66 120 0.0 0.9 0.00 0.00 0.00 80 1017.4
20260506083547 66 90 0.0 0.0 0.00 0.00 0.00 80 1017.4
20260506083044 66 97 0.0 1.7 0.00 0.00 0.00 79 1017.4
20260506082540 67 194 0.0 2.6 0.00 0.00 0.00 79 1017.3
20260506082036 66 90 0.0 1.7 0.00 0.00 0.00 79 1017.4
20260506081535 66 99 0.0 1.7 0.00 0.00 0.00 79 1017.2
20260506081032 66 90 0.0 1.7 0.00 0.00 0.00 79 1017.3
20260506080529 66 77 0.9 0.9 0.00 0.00 0.00 79 1017.4
20260506073513 66 114 0.0 1.7 0.00 0.00 0.00 78 1017.0
20260506073010 66 121 0.0 1.7 0.00 0.00 0.00 79 1016.8
20260506072507 66 99 0.0 1.7 0.00 0.00 0.00 79 1017.0
20260506072004 66 90 0.9 0.9 0.00 0.00 0.00 79 1017.3
20260506071502 66 123 0.0 1.7 0.00 0.00 0.00 80 1017.1
20260506070959 65 120 0.0 0.0 0.00 0.00 0.00 80 1017.5
20260506070456 65 105 0.0 0.9 0.00 0.00 0.00 80 1017.3
20260506062434 65 114 0.0 0.0 0.00 0.00 0.00 77 1017.7
20260506061929 66 81 0.0 0.9 0.00 0.00 0.00 77 1017.8
20260506061426 66 126 0.0 0.9 0.00 0.00 0.00 77 1017.9
20260506060924 66 98 0.0 0.9 0.00 0.00 0.00 77 1017.7
20260506060422 66 98 0.0 0.9 0.00 0.00 0.00 76 1018.0
20260506051354 65 98 0.0 0.9 0.00 0.00 0.00 80 1018.1
20260506050851 65 99 0.0 0.0 0.00 0.00 0.00 81 1018.1
20260506050349 64 151 0.0 0.9 0.00 0.00 0.00 80 1018.3
20260506044839 65 90 0.0 0.0 0.00 0.00 0.00 80 1018.3
20260506044337 65 90 0.0 0.0 0.00 0.00 0.00 80 1018.4
20260506043834 65 90 0.0 0.0 0.00 0.00 0.00 79 1018.3
20260506043331 65 90 0.0 0.0 0.00 0.00 0.00 79 1018.3
20260506042829 65 90 0.0 0.0 0.00 0.00 0.00 79 1018.4
20260506042328 65 90 0.0 0.0 0.00 0.00 0.00 78 1018.4
20260506041827 66 90 0.0 0.0 0.00 0.00 0.00 78 1018.5
20260506041323 66 90 0.0 0.0 0.00 0.00 0.00 78 1018.4
20260506040820 66 90 0.0 0.0 0.00 0.00 0.00 78 1018.5
20260506040317 66 90 0.0 0.0 0.00 0.00 0.00 77 1018.5
20260506035814 66 90 0.0 0.0 0.00 0.00 0.00 77 1018.6
20260506035311 66 90 0.0 0.0 0.00 0.00 0.00 77 1018.6
20260506034808 66 90 0.0 0.0 0.00 0.00 0.00 76 1018.4
20260506034305 67 90 0.0 0.9 0.00 0.00 0.00 76 1018.5
20260506033802 66 114 0.0 0.0 0.00 0.00 0.00 76 1018.7
20260506033259 67 114 0.0 0.0 0.00 0.00 0.00 75 1018.7
20260506032756 66 114 0.0 0.0 0.00 0.00 0.00 75 1018.5
20260506032253 67 114 0.0 0.0 0.00 0.00 0.00 75 1018.5
20260506031749 67 114 0.0 0.0 0.00 0.00 0.00 74 1018.4
20260506031247 67 114 0.0 0.0 0.00 0.00 0.00 74 1018.5
20260506030745 67 114 0.0 0.0 0.00 0.00 0.00 74 1018.5
20260506030243 67 114 0.0 0.0 0.00 0.00 0.00 74 1018.5
20260506025739 68 114 0.0 0.0 0.00 0.00 0.00 74 1018.2
20260506025235 68 114 0.0 0.0 0.00 0.00 0.00 73 1018.3
20260506024732 68 114 0.0 0.0 0.00 0.00 0.00 73 1018.3
20260506024229 68 114 0.0 0.0 0.00 0.00 0.00 73 1018.3
20260506023725 68 114 0.0 0.0 0.00 0.00 0.00 73 1018.3
20260506023223 69 114 0.0 0.0 0.00 0.00 0.00 73 1018.2
20260506022719 69 114 0.0 0.9 0.00 0.00 0.00 73 1018.2
20260506022217 69 106 0.0 0.0 0.00 0.00 0.00 72 1017.8
20260506021715 69 106 0.0 0.0 0.00 0.00 0.00 72 1017.8
20260506021212 69 106 0.0 0.0 0.00 0.00 0.00 71 1017.8
20260506020708 70 106 0.0 0.0 0.00 0.00 0.00 70 1017.6
20260506020206 70 90 0.0 1.7 0.00 0.00 0.00 70 1017.5
20260506015704 70 105 0.0 2.6 0.00 0.00 0.00 70 1017.8
20260506015201 71 175 0.0 0.0 0.00 0.00 0.00 69 1017.7
20260506014658 71 99 0.0 1.7 0.00 0.00 0.00 69 1017.5
20260506014154 70 157 0.0 1.7 0.00 0.00 0.00 69 1017.6
20260506013652 71 99 0.0 2.6 0.00 0.00 0.00 69 1017.6
20260506013149 71 105 0.0 1.7 0.00 0.00 0.00 69 1017.7